Location: Ellingshausen
(50.5460°N, 10.4723°E)
Time: 23:43:11
(UTC+00:00)

Cosmos 1328 - Pass Details

Date: 18 January 2026
Orbit: 460 x 472 km, 82.5° (Epoch: 17 February)

Event Time Altitude Azimuth Distance (km) Brightness Sun altitude
Exits shadow 05:59:18 - 342° (NNW) 2,087 6.4 -11.0°
Reaches altitude 10° 06:00:23 10° 338° (NNW) 1,650 5.9 -10.8°
Maximum altitude 06:03:49 43° 266° (W) 677 3.9 -10.3°
Drops below altitude 10° 06:07:14 10° 193° (SSW) 1,642 6.3 -9.8°
Sets 06:09:22 0° 187° (S) 2,517 7.4 -9.5°
